Content
SEND FEEDBACK

Daily
Averages
Monthly
Summary
United States of America

MALDEN, MISSOURI


Home > North America > United States > Missouri
Elevation: 295 feet     Latitude: 36 36N     Longitude: 089 59W

WEATHER
 
SELECT A DAY
Number of Records: 210,169;   Date Range: 1/1/95 - 9/30/14
 
SHARE

PRINT THIS DATA

[ ← Previous Day ]
WEATHER ALMANAC - AUGUST 7, 2014
[ Next Day → ]
[ °C ]   °F
Weather ElementAverageHighLow
Temperature73.5 °F78.1 °F (8:53 am)68 °F (5:53 am)
Dewpoint68.1 °F72 °F (1:53 pm)64.9 °F (1:53 am)
Humidity83.4 %90 % (4:53 am)74 % (8:53 am)
Barometer29.92 in29.96 in (6:53 pm)29.86 in (8:53 pm)
Wind Speed3.6 mph10.4 mph (4:32 pm)
Wind Gust17.3 mph (12:03 pm)
Weather ElementAverage
Visibility6.9 mi
Wind DirectionESE (103 °)

Weather ElementTotal
Precipitation0.55 in
Cooling Degree Days8.1 (Base 65)
Growing Degree Days23.1 (Base 50)
Averaged from 46 records on August 7, 2014
WEATHER CONDITIONS BREAKOUT
WIND DIRECTION BREAKOUT
WEATHER BY HOUR - AUGUST 7, 2014
[ °C ]   °F
Local TimeTemperatureDewpointHumidityBarometerVisibilityWind DirectionWind SpeedGust SpeedPrecipitationEventsConditions
12:53 AM70.0 °F66.0 °F87 %29.95 in4.0 miCalmClear
1:22 AM69.1 °F66.0 °F90 %29.95 in1.8 miCalmClear
1:33 AM69.1 °F66.0 °F90 %29.95 in2.5 miNNW (340°)3.5 mphClear
1:40 AM69.1 °F66.0 °F90 %29.95 in4.0 miNNW (330°)4.6 mphClear
1:53 AM70.0 °F66.0 °F87 %29.95 in4.0 miNorth (350°)3.5 mphClear
2:53 AM70.0 °F66.0 °F87 %29.95 in4.0 miEast (90°)3.5 mphClear
3:53 AM68.0 °F64.9 °F90 %29.95 in2.5 miCalmClear
4:32 AM69.1 °F64.9 °F87 %29.95 in3.0 miCalmClear
4:38 AM69.1 °F66.0 °F90 %29.95 in1.8 miCalmClear
4:53 AM69.1 °F66.0 °F90 %29.93 in2.5 miCalmClear
5:01 AM69.1 °F66.0 °F90 %29.94 in4.0 miESE (120°)4.6 mphClear
5:53 AM70.0 °F66.0 °F87 %29.93 in6.0 miCalmClear
6:53 AM70.0 °F66.0 °F87 %29.95 in5.0 miCalmClear
7:53 AM72.0 °F68.0 °F87 %29.96 in6.0 miCalmClear
8:53 AM73.9 °F69.1 °F85 %29.96 in8.0 miSSE (160°)5.8 mphPartly Cloudy
9:53 AM77.0 °F71.1 °F82 %29.93 in7.0 miSouth (170°)4.6 mph0.01 inPartly Cloudy
10:36 AM77.0 °F69.1 °F76 %29.93 in2.0 miEast (100°)6.9 mph0.06 inRainRain
10:45 AM75.9 °F69.1 °F79 %29.95 in10.0 miSSE (160°)6.9 mph0.06 inScattered Clouds
10:53 AM77.0 °F68.0 °F74 %29.93 in10.0 miCalm0.06 inScattered Clouds
11:00 AM77.0 °F69.1 °F76 %29.94 in10.0 miSE (140°)3.5 mphThunderstormPartly Cloudy
11:29 AM75.9 °F70.0 °F82 %29.95 in9.0 miNW (320°)3.5 mph0.00 inThunderstormThunderstorm
11:34 AM77.0 °F70.0 °F79 %29.94 in1.5 miSSE (160°)4.6 mph0.00 inRain-ThunderstormLight Thunderstorms and Rain
11:51 AM77.0 °F71.6 °F83 %29.93 in3.0 miCalm0.18 inRain-ThunderstormLight Thunderstorms and Rain
11:53 AM77.0 °F72.0 °F84 %29.93 in5.0 miCalm0.18 inRain-ThunderstormLight Thunderstorms and Rain
12:03 PM75.9 °F71.1 °F85 %29.94 in7.0 miSSE (160°)10.4 mph17.3 mph0.00 inThunderstormMostly Cloudy
12:27 PM77.0 °F70.0 °F79 %29.94 in10.0 miSouth (180°)6.9 mph0.00 inScattered Clouds
12:41 PM77.0 °F70.0 °F79 %29.93 in10.0 miSSE (150°)5.8 mph0.00 inMostly Cloudy
12:53 PM75.9 °F69.1 °F79 %29.92 in10.0 miSSE (150°)3.5 mph0.00 inMostly Cloudy
1:31 PM77.0 °F70.0 °F79 %29.93 in10.0 miEast (100°)4.6 mphOvercast
1:45 PM78.1 °F70.0 °F76 %29.91 in10.0 miNE (50°)4.6 mphThunderstormScattered Clouds
1:53 PM78.1 °F70.0 °F76 %29.90 in10.0 miEast (90°)4.6 mphThunderstormPartly Cloudy
2:00 PM78.1 °F70.0 °F76 %29.92 in10.0 miEast (90°)3.5 mphPartly Cloudy
2:53 PM77.0 °F70.0 °F79 %29.90 in10.0 miESE (120°)5.8 mph0.00 inRainLight Rain
3:53 PM75.0 °F69.1 °F82 %29.88 in10.0 miSE (130°)8.1 mph0.00 inRainLight Rain
4:53 PM75.0 °F69.1 °F82 %29.89 in10.0 miESE (120°)6.9 mph0.00 inRainLight Rain
5:21 PM73.9 °F68.0 °F82 %29.90 in10.0 miSSE (150°)10.4 mph0.00 inOvercast
5:35 PM73.9 °F68.0 °F82 %29.89 in10.0 miSSE (150°)10.4 mph0.00 inRainLight Rain
5:48 PM73.4 °F68.0 °F83 %29.89 in10.0 miSSE (160°)6.9 mph0.00 inOvercast
5:53 PM73.9 °F68.0 °F82 %29.88 in10.0 miSSE (160°)5.8 mph0.00 inOvercast
6:53 PM75.0 °F68.0 °F79 %29.87 in10.0 miSSE (150°)5.8 mphMostly Cloudy
7:53 PM73.9 °F68.0 °F82 %29.87 in10.0 miCalmClear
8:53 PM73.0 °F66.9 °F81 %29.86 in10.0 miSouth (190°)5.8 mphClear
9:53 PM71.1 °F66.9 °F87 %29.87 in10.0 miCalmClear
10:53 PM70.0 °F66.0 °F87 %29.88 in10.0 miCalmPartly Cloudy
11:53 PM69.1 °F66.0 °F90 %29.88 in4.0 miCalmClear
11:59 PM69.1 °F66.0 °F90 %29.89 in1.8 miCalmClear
Hourly data recorded from KPOF, located miles away from Malden, Missouri







STORIES FROM OUR PARTNERS